Regional Weather Roundup
Issued by NWS Midland/Odessa, TX

Skip options and go directly to product.
Home | Oldest Version | Next Version | Current Version | All | Text Only | Save Text | Print | Product List | Glossary On

Skip product version selection by date and time.   
671
ASUS44 KMAF 282301
RWRMAF
MIDLAND AREA WEATHER ROUNDUP
NATIONAL WEATHER SERVICE MIDLAND TX
600 PM CDT SAT MAR 28 2015

...IN SOUTHWEST TEXAS AND SOUTHEAST NEW MEXICO...

CITY           SKY/WX    TMP DP  RH WIND       PRES   REMARKS
ALPINE         SUNNY     83  20   9 W7G17     30.14F
ANDREWS        FAIR      87  23   9 NW13G22   29.96F
ARTESIA        SUNNY     88  23   9 N10       29.98F
BIG SPRING     SUNNY     89  29  11 SW8       29.96F
CARLSBAD       SUNNY     89  25  10 MISG      29.96F
DRYDEN           N/A     87  40  19 SE14      29.96F
FORT STOCKTON  SUNNY     88  19   8 W13       29.98F
GUAD PASS      SUNNY     81  17   9 W20G25    30.14F
HOBBS          SUNNY     84  19   9 W12       30.00S
MARFA          SUNNY     81  21  11 NW14G23   30.14S
MIDLAND AIRPK  SUNNY     87  30  13 SW10      29.95F
MIDLAND INTL   SUNNY     87  33  14 SW10      29.95F
ODESSA         SUNNY     87  28  12 W10       29.96F
PECOS          SUNNY     88  33  14 CALM      29.95S
PRESIDIO       FAIR      88  26  10 S6        30.01F
SEMINOLE       SUNNY     86  26  11 N8        29.97S
SNYDER         SUNNY     88  33  14 SW12      29.92F
WINK           SUNNY     89  23   9 NW7       29.94F
$$
...OTHER STATIONS IN TEXAS...

CITY           SKY/WX    TMP DP  RH WIND       PRES   REMARKS
ABILENE        SUNNY     87  40  19 S20       29.91F
AMARILLO       SUNNY     83  19   9 VRB3      29.98F
AUSTIN         SUNNY     80  46  30 S16G22    30.01F
BROWNSVILLE    SUNNY     75  57  53 S21       30.10S
CORPUS CHRISTI MOSUNNY   76  59  55 SE22G29   30.07S
DALLAS FTW     MOSUNNY   80  50  34 S10       29.95F
DEL RIO        SUNNY     87  38  17 SE12      29.95F
EL PASO        SUNNY     87   9   5 W13       30.04F
HOUSTON INT    SUNNY     81  40  23 SW13G22   30.05F
LUBBOCK        MOSUNNY   85  27  12 NE3       29.96S
SAN ANGELO     SUNNY     86  37  17 S20G25    29.94F
SAN ANTONIO    SUNNY     82  41  23 S12       30.04S
WACO           SUNNY     80  46  30 S15       29.96S
WICHITA FALLS  NOT AVBL
$$
...OTHER LOCATIONS IN NEW MEXICO...

CITY           SKY/WX    TMP DP  RH WIND       PRES   REMARKS
ALAMAGORDO     MOSUNNY   84  14   7 N7        30.06F
ALBUQUERQUE    SUNNY     79  18  10 W8        30.08F
CANNON AFB     NOT AVBL
CLOVIS         SUNNY     81  23  12 CALM      30.01F
HOLLOMAN AFB   NOT AVBL
ROSWELL        SUNNY     87  20   8 N12G20    29.98F
RUIDOSO        SUNNY     72  10   9 N13G22    30.22S
SANTA FE       SUNNY     76  13   9 W13       30.11F
TRUTH OR CONSE SUNNY     85  14   7 S16       30.05F
TUCUMCARI      SUNNY     83  14   7 CALM      29.98F
$$

USA.gov is the U.S. government's official web portal to all federal, state and local government web resources and services.